TOL001 KFLL-KATL

Flight info

Callsign TOL001
Flight time N/A
Altitude 35000
Route DCT OMN DCT CRG DCT AMG DCT MCN DCT KATL
Aircraft A346/H-SDE3E/C

Departure

Time 2026-05-04 02:34
Airport Fort Lauderdale Hollywood International Airport (KFLL)

Arrival

Time N/A
Airport Hartsfield Jackson Atlanta International Airport (KATL)
Time Latitude Longitude Altitude Speed Heading
2026-05-04 01:05 26.07434 -80.13649 21 ft 0 kts 157°
2026-05-04 01:10 26.07432 -80.13648 21 ft 0 kts 157°
2026-05-04 01:10 26.07448 -80.13655 21 ft 4 kts 157°
2026-05-04 01:10 26.07470 -80.13666 21 ft 3 kts 157°
2026-05-04 01:11 26.07491 -80.13676 21 ft 0 kts 157°
2026-05-04 01:11 26.07490 -80.13676 21 ft 0 kts 157°
2026-05-04 01:11 26.07489 -80.13675 21 ft 0 kts 161°
2026-05-04 01:11 26.07481 -80.13676 21 ft 1 kts 196°
2026-05-04 01:12 26.07477 -80.13682 21 ft 1 kts 245°
2026-05-04 01:12 26.07476 -80.13699 21 ft 3 kts 272°
2026-05-04 01:12 26.07477 -80.13702 21 ft 0 kts 288°
2026-05-04 01:27 26.07476 -80.13699 21 ft 2 kts 283°
2026-05-04 01:27 26.07470 -80.13645 21 ft 10 kts 273°
2026-05-04 01:28 26.07469 -80.13628 21 ft 0 kts 273°
2026-05-04 01:28 26.07469 -80.13626 21 ft 1 kts 272°
2026-05-04 01:28 26.07469 -80.13621 21 ft 0 kts 272°
2026-05-04 01:29 26.07469 -80.13614 21 ft 0 kts 272°
2026-05-04 02:21 26.07469 -80.13616 21 ft 2 kts 272°
2026-05-04 02:21 26.07469 -80.13689 21 ft 15 kts 270°
2026-05-04 02:21 26.07473 -80.13854 21 ft 26 kts 277°
2026-05-04 02:21 26.07485 -80.14084 21 ft 31 kts 270°
2026-05-04 02:22 26.07488 -80.14324 21 ft 31 kts 271°
2026-05-04 02:22 26.07492 -80.14567 21 ft 31 kts 268°
2026-05-04 02:22 26.07489 -80.14809 21 ft 31 kts 270°
2026-05-04 02:22 26.07489 -80.15051 21 ft 31 kts 270°
2026-05-04 02:23 26.07490 -80.15295 21 ft 31 kts 270°
2026-05-04 02:23 26.07492 -80.15539 21 ft 31 kts 270°
2026-05-04 02:23 26.07492 -80.15758 21 ft 8 kts 270°
2026-05-04 02:23 26.07493 -80.15835 21 ft 11 kts 270°
2026-05-04 02:24 26.07493 -80.15936 21 ft 14 kts 270°
2026-05-04 02:24 26.07494 -80.16062 21 ft 17 kts 270°
2026-05-04 02:24 26.07494 -80.16207 21 ft 19 kts 270°
2026-05-04 02:24 26.07495 -80.16363 21 ft 20 kts 270°
2026-05-04 02:25 26.07496 -80.16485 21 ft 0 kts 270°
2026-05-04 02:28 26.07498 -80.16507 21 ft 10 kts 282°
2026-05-04 02:28 26.07560 -80.16561 21 ft 0 kts 360°
2026-05-04 02:28 26.07561 -80.16561 21 ft 1 kts 360°
2026-05-04 02:29 26.07562 -80.16561 21 ft 0 kts 360°
2026-05-04 02:30 26.07564 -80.16561 21 ft 0 kts 360°
2026-05-04 02:33 26.07625 -80.16562 21 ft 13 kts
2026-05-04 02:33 26.07687 -80.16511 21 ft 12 kts 78°
2026-05-04 02:33 26.07693 -80.16409 21 ft 13 kts 89°
2026-05-04 02:34 26.07693 -80.16144 21 ft 70 kts 90°
2026-05-04 02:34 26.07690 -80.15329 21 ft 139 kts 90°
2026-05-04 02:34 26.07686 -80.14063 79 ft 183 kts 90°
2026-05-04 02:34 26.07668 -80.12615 622 ft 190 kts 92°
2026-05-04 02:35 26.07626 -80.11065 991 ft 219 kts 90°
2026-05-04 02:35 26.07648 -80.09211 1159 ft 261 kts 88°
2026-05-04 02:35 26.07717 -80.07063 1462 ft 291 kts 88°
2026-05-04 02:35 26.07788 -80.04749 1884 ft 307 kts 88°
2026-05-04 02:36 26.07859 -80.02319 2405 ft 322 kts 88°
2026-05-04 02:36 26.07929 -79.99797 2998 ft 333 kts 88°
2026-05-04 02:36 26.08044 -79.97202 3746 ft 339 kts 81°
2026-05-04 02:36 26.08546 -79.94715 4885 ft 330 kts 79°
2026-05-04 02:37 26.08594 -79.92238 6040 ft 320 kts 97°
2026-05-04 02:37 26.08504 -79.89845 7175 ft 309 kts 82°
2026-05-04 02:37 26.08955 -79.87557 8285 ft 298 kts 74°
2026-05-04 02:37 26.09518 -79.85425 9337 ft 286 kts 73°